Time,TemperatureF,DewpointF,PressureIn,WindDirection,WindDirectionDegrees,WindSpeedMPH,WindSpeedGustMPH,Humidity,HourlyPrecipIn,Conditions,Clouds,dailyrainin,SoftwareType,DateUTC
2013-07-21 00:05:00,71.4,61.5,29.80,WSW,250,5.0,11.0,71,0.00,,,0.00,Wunderground v.1.15,2013-07-21 04:05:00,
2013-07-21 00:10:00,71.3,61.8,29.80,SW,234,5.0,11.0,72,0.00,,,0.00,Wunderground v.1.15,2013-07-21 04:10:00,
2013-07-21 00:15:00,71.2,61.7,29.80,WSW,250,5.0,11.0,72,0.00,,,0.00,Wunderground v.1.15,2013-07-21 04:15:00,
2013-07-21 00:20:00,71.1,61.6,29.80,West,274,5.0,11.0,72,0.00,,,0.00,Wunderground v.1.15,2013-07-21 04:20:00,
2013-07-21 00:25:00,70.9,61.4,29.80,SW,236,5.0,11.0,72,0.00,,,0.00,Wunderground v.1.15,2013-07-21 04:25:00,
2013-07-21 00:35:00,70.9,61.4,29.81,SW,232,5.0,11.0,72,0.00,,,0.00,Wunderground v.1.15,2013-07-21 04:35:00,
2013-07-21 00:40:00,70.8,61.3,29.81,WSW,250,5.0,5.0,72,0.00,,,0.00,Wunderground v.1.15,2013-07-21 04:40:00,
2013-07-21 00:45:00,70.8,61.3,29.81,WSW,250,5.0,11.0,72,0.00,,,0.00,Wunderground v.1.15,2013-07-21 04:45:00,
2013-07-21 00:50:00,70.8,60.9,29.81,WSW,245,5.0,5.0,71,0.00,,,0.00,Wunderground v.1.15,2013-07-21 04:50:00,
2013-07-21 00:55:00,70.7,61.2,29.81,West,259,4.0,11.0,72,0.00,,,0.00,Wunderground v.1.15,2013-07-21 04:55:00,
2013-07-21 01:00:00,70.6,61.1,29.81,West,259,3.0,11.0,72,0.00,,,0.00,Wunderground v.1.15,2013-07-21 05:00:00,
2013-07-21 01:10:00,70.6,60.7,29.81,WSW,245,4.0,11.0,71,0.00,,,0.00,Wunderground v.1.15,2013-07-21 05:10:00,
2013-07-21 01:15:00,70.8,60.9,29.81,WSW,250,4.0,11.0,71,0.00,,,0.00,Wunderground v.1.15,2013-07-21 05:15:00,
2013-07-21 01:20:00,70.9,61.0,29.81,WSW,255,5.0,11.0,71,0.00,,,0.00,Wunderground v.1.15,2013-07-21 05:20:00,
2013-07-21 01:30:00,71.2,60.9,29.81,SW,223,6.0,11.0,70,0.00,,,0.00,Wunderground v.1.15,2013-07-21 05:30:00,
2013-07-21 01:35:00,71.2,60.9,29.81,WSW,245,5.0,11.0,70,0.00,,,0.00,Wunderground v.1.15,2013-07-21 05:35:00,
2013-07-21 01:40:00,71.1,60.8,29.82,WSW,250,5.0,5.0,70,0.00,,,0.00,Wunderground v.1.15,2013-07-21 05:40:00,
2013-07-21 01:45:00,71.0,61.1,29.82,WSW,255,5.0,11.0,71,0.00,,,0.00,Wunderground v.1.15,2013-07-21 05:45:00,
2013-07-21 01:50:00,70.9,61.0,29.82,SW,236,6.0,6.0,71,0.00,,,0.00,Wunderground v.1.15,2013-07-21 05:50:00,
2013-07-21 02:00:00,70.5,61.0,29.82,WSW,250,5.0,11.0,72,0.00,,,0.00,Wunderground v.1.15,2013-07-21 06:00:00,
2013-07-21 02:05:00,70.3,60.8,29.82,West,262,5.0,11.0,72,0.00,,,0.00,Wunderground v.1.15,2013-07-21 06:05:00,
2013-07-21 02:15:00,70.0,60.9,29.83,WSW,255,5.0,11.0,73,0.00,,,0.00,Wunderground v.1.15,2013-07-21 06:15:00,
2013-07-21 02:20:00,69.9,61.2,29.83,SW,236,6.0,11.0,74,0.00,,,0.00,Wunderground v.1.15,2013-07-21 06:20:00,
2013-07-21 02:25:00,69.8,61.1,29.83,WSW,255,6.0,11.0,74,0.00,,,0.00,Wunderground v.1.15,2013-07-21 06:25:00,
2013-07-21 02:30:00,69.8,61.5,29.82,WSW,245,6.0,6.0,75,0.00,,,0.00,Wunderground v.1.15,2013-07-21 06:30:00,
2013-07-21 02:35:00,69.6,61.3,29.83,WSW,255,5.0,11.0,75,0.00,,,0.00,Wunderground v.1.15,2013-07-21 06:35:00,
2013-07-21 02:45:00,69.5,61.2,29.83,West,265,6.0,7.0,75,0.00,,,0.00,Wunderground v.1.15,2013-07-21 06:45:00,
2013-07-21 02:50:00,69.5,61.2,29.83,West,274,6.0,6.0,75,0.00,,,0.00,Wunderground v.1.15,2013-07-21 06:50:00,
2013-07-21 02:55:00,69.5,61.6,29.83,West,261,6.0,11.0,76,0.00,,,0.00,Wunderground v.1.15,2013-07-21 06:55:00,
2013-07-21 03:00:00,69.5,61.6,29.82,WSW,237,6.0,11.0,76,0.00,,,0.00,Wunderground v.1.15,2013-07-21 07:00:00,
2013-07-21 03:05:00,69.5,61.6,29.82,West,262,5.0,11.0,76,0.00,,,0.00,Wunderground v.1.15,2013-07-21 07:05:00,
2013-07-21 03:15:00,69.4,61.9,29.82,West,266,4.0,11.0,77,0.00,,,0.00,Wunderground v.1.15,2013-07-21 07:15:00,
2013-07-21 03:20:00,69.3,61.8,29.82,West,261,5.0,5.0,77,0.00,,,0.00,Wunderground v.1.15,2013-07-21 07:20:00,
2013-07-21 03:25:00,69.2,61.7,29.82,WSW,245,4.0,11.0,77,0.00,,,0.00,Wunderground v.1.15,2013-07-21 07:25:00,
2013-07-21 03:30:00,69.4,61.9,29.82,WSW,245,5.0,5.0,77,0.00,,,0.00,Wunderground v.1.15,2013-07-21 07:30:00,
2013-07-21 03:40:00,69.2,61.7,29.82,WSW,250,5.0,5.0,77,0.00,,,0.00,Wunderground v.1.15,2013-07-21 07:40:00,
2013-07-21 03:45:00,69.0,61.5,29.82,WSW,255,5.0,11.0,77,0.00,,,0.00,Wunderground v.1.15,2013-07-21 07:45:00,
2013-07-21 03:50:00,69.0,61.5,29.83,WSW,255,4.0,11.0,77,0.00,,,0.00,Wunderground v.1.15,2013-07-21 07:50:00,
2013-07-21 04:00:00,68.7,61.6,29.82,WSW,250,4.0,11.0,78,0.00,,,0.00,Wunderground v.1.15,2013-07-21 08:00:00,
2013-07-21 04:05:00,68.8,61.7,29.83,WSW,245,4.0,11.0,78,0.00,,,0.00,Wunderground v.1.15,2013-07-21 08:05:00,
2013-07-21 04:10:00,68.7,61.6,29.83,WSW,255,3.0,11.0,78,0.00,,,0.00,Wunderground v.1.15,2013-07-21 08:10:00,
2013-07-21 04:20:00,68.7,61.6,29.83,WSW,250,3.0,11.0,78,0.00,,,0.00,Wunderground v.1.15,2013-07-21 08:20:00,
2013-07-21 04:25:00,68.7,61.6,29.83,WSW,255,2.0,11.0,78,0.00,,,0.00,Wunderground v.1.15,2013-07-21 08:25:00,
2013-07-21 04:30:00,68.8,61.7,29.83,WSW,255,1.0,11.0,78,0.00,,,0.00,Wunderground v.1.15,2013-07-21 08:30:00,
2013-07-21 04:35:00,68.8,61.7,29.84,WSW,255,0.0,11.0,78,0.00,,,0.00,Wunderground v.1.15,2013-07-21 08:35:00,
2013-07-21 04:40:00,68.6,61.8,29.84,WSW,255,0.0,11.0,79,0.00,,,0.00,Wunderground v.1.15,2013-07-21 08:40:00,
2013-07-21 04:50:00,68.4,61.6,29.85,WSW,250,0.0,11.0,79,0.00,,,0.00,Wunderground v.1.15,2013-07-21 08:50:00,
2013-07-21 04:55:00,68.3,61.5,29.85,WSW,255,1.0,11.0,79,0.00,,,0.00,Wunderground v.1.15,2013-07-21 08:55:00,
2013-07-21 05:05:00,68.0,61.6,29.85,NNW,329,0.0,11.0,80,0.00,,,0.00,Wunderground v.1.15,2013-07-21 09:05:00,
2013-07-21 05:10:00,68.0,61.6,29.85,WNW,284,1.0,11.0,80,0.00,,,0.00,Wunderground v.1.15,2013-07-21 09:10:00,
2013-07-21 05:15:00,68.0,61.6,29.85,WNW,284,1.0,11.0,80,0.00,,,0.00,Wunderground v.1.15,2013-07-21 09:15:00,
2013-07-21 05:20:00,67.9,61.5,29.85,WNW,282,0.0,11.0,80,0.00,,,0.00,Wunderground v.1.15,2013-07-21 09:20:00,
2013-07-21 05:25:00,67.9,61.5,29.86,WNW,282,0.0,11.0,80,0.00,,,0.00,Wunderground v.1.15,2013-07-21 09:25:00,
2013-07-21 05:35:00,67.9,61.5,29.86,West,269,0.0,11.0,80,0.00,,,0.00,Wunderground v.1.15,2013-07-21 09:35:00,
2013-07-21 05:40:00,67.6,61.6,29.86,West,270,0.0,11.0,81,0.00,,,0.00,Wunderground v.1.15,2013-07-21 09:40:00,
2013-07-21 05:45:00,67.3,61.3,29.87,West,269,0.0,11.0,81,0.00,,,0.00,Wunderground v.1.15,2013-07-21 09:45:00,
2013-07-21 05:50:00,67.0,61.3,29.87,West,270,0.0,11.0,82,0.00,,,0.00,Wunderground v.1.15,2013-07-21 09:50:00,
2013-07-21 05:55:00,66.8,61.5,29.87,West,269,0.0,11.0,83,0.00,,,0.00,Wunderground v.1.15,2013-07-21 09:55:00,
2013-07-21 06:05:00,67.6,61.9,29.87,NW,311,2.0,5.0,82,0.00,,,0.00,Wunderground v.1.15,2013-07-21 10:05:00,
2013-07-21 06:10:00,67.9,61.9,29.88,NW,311,2.0,11.0,81,0.00,,,0.00,Wunderground v.1.15,2013-07-21 10:10:00,
2013-07-21 06:15:00,68.1,62.0,29.88,West,278,2.0,11.0,81,0.00,,,0.00,Wunderground v.1.15,2013-07-21 10:15:00,
2013-07-21 06:25:00,68.8,62.4,29.88,NW,315,1.0,11.0,80,0.00,,,0.00,Wunderground v.1.15,2013-07-21 10:25:00,
2013-07-21 06:30:00,69.1,62.3,29.88,NW,315,1.0,11.0,79,0.00,,,0.00,Wunderground v.1.15,2013-07-21 10:30:00,
2013-07-21 06:35:00,69.4,62.6,29.88,NW,315,1.0,11.0,79,0.00,,,0.00,Wunderground v.1.15,2013-07-21 10:35:00,
2013-07-21 06:40:00,69.8,63.0,29.88,NW,314,0.0,11.0,79,0.00,,,0.00,Wunderground v.1.15,2013-07-21 10:40:00,
2013-07-21 06:45:00,70.1,63.3,29.88,NW,315,0.0,11.0,79,0.00,,,0.00,Wunderground v.1.15,2013-07-21 10:45:00,
2013-07-21 06:55:00,70.8,64.0,29.88,NW,315,0.0,11.0,79,0.00,,,0.00,Wunderground v.1.15,2013-07-21 10:55:00,
2013-07-21 07:00:00,71.2,64.0,29.89,NW,314,0.0,11.0,78,0.00,,,0.00,Wunderground v.1.15,2013-07-21 11:00:00,
2013-07-21 07:05:00,71.3,63.3,29.89,North,351,1.0,11.0,76,0.00,,,0.00,Wunderground v.1.15,2013-07-21 11:05:00,
2013-07-21 07:10:00,71.5,63.9,29.89,North,351,1.0,11.0,77,0.00,,,0.00,Wunderground v.1.15,2013-07-21 11:10:00,
2013-07-21 07:20:00,71.9,63.9,29.89,North,357,1.0,1.0,76,0.00,,,0.00,Wunderground v.1.15,2013-07-21 11:20:00,
2013-07-21 07:25:00,72.1,64.1,29.89,NNW,329,2.0,3.0,76,0.00,,,0.00,Wunderground v.1.15,2013-07-21 11:25:00,
2013-07-21 07:30:00,72.4,64.0,29.89,NNW,329,2.0,2.0,75,0.00,,,0.00,Wunderground v.1.15,2013-07-21 11:30:00,
2013-07-21 07:35:00,72.6,64.6,29.89,NNW,329,2.0,11.0,76,0.00,,,0.00,Wunderground v.1.15,2013-07-21 11:35:00,
2013-07-21 07:40:00,73.3,65.3,29.89,NNW,329,1.0,11.0,76,0.00,,,0.00,Wunderground v.1.15,2013-07-21 11:40:00,
2013-07-21 07:50:00,74.6,64.2,29.90,NNW,332,2.0,2.0,70,0.00,,,0.00,Wunderground v.1.15,2013-07-21 11:50:00,
2013-07-21 07:55:00,75.0,65.0,29.90,NNW,333,2.0,4.0,71,0.00,,,0.00,Wunderground v.1.15,2013-07-21 11:55:00,
2013-07-21 08:00:00,75.1,65.1,29.90,NNW,338,1.0,1.0,71,0.00,,,0.00,Wunderground v.1.15,2013-07-21 12:00:00,
2013-07-21 08:05:00,75.6,65.5,29.90,NNW,337,1.0,2.0,71,0.00,,,0.00,Wunderground v.1.15,2013-07-21 12:05:00,
2013-07-21 08:15:00,76.8,65.4,29.91,NNW,333,1.0,11.0,68,0.00,,,0.00,Wunderground v.1.15,2013-07-21 12:15:00,
2013-07-21 08:25:00,76.9,65.5,29.91,NNE,24,1.0,11.0,68,0.00,,,0.00,Wunderground v.1.15,2013-07-21 12:25:00,
2013-07-21 08:30:00,77.2,66.2,29.91,NNW,334,2.0,11.0,69,0.00,,,0.00,Wunderground v.1.15,2013-07-21 12:30:00,
2013-07-21 08:35:00,77.8,65.5,29.91,North,1,3.0,11.0,66,0.00,,,0.00,Wunderground v.1.15,2013-07-21 12:35:00,
2013-07-21 08:45:00,77.6,65.3,29.91,NE,34,1.0,11.0,66,0.00,,,0.00,Wunderground v.1.15,2013-07-21 12:45:00,
2013-07-21 08:50:00,76.9,65.5,29.91,NE,38,0.0,11.0,68,0.00,,,0.00,Wunderground v.1.15,2013-07-21 12:50:00,
2013-07-21 08:55:00,76.6,65.2,29.92,NE,40,0.0,11.0,68,0.00,,,0.00,Wunderground v.1.15,2013-07-21 12:55:00,
2013-07-21 09:00:00,76.7,66.2,29.92,NE,40,0.0,11.0,70,0.00,,,0.00,Wunderground v.1.15,2013-07-21 13:00:00,
2013-07-21 09:10:00,76.9,66.0,29.92,NNE,16,0.0,11.0,69,0.00,,,0.00,Wunderground v.1.15,2013-07-21 13:10:00,
2013-07-21 09:15:00,77.4,65.6,29.92,NNW,345,0.0,11.0,67,0.00,,,0.00,Wunderground v.1.15,2013-07-21 13:15:00,
2013-07-21 09:20:00,77.6,65.3,29.92,NNE,23,1.0,1.0,66,0.00,,,0.00,Wunderground v.1.15,2013-07-21 13:20:00,
2013-07-21 09:25:00,77.4,64.7,29.92,NNE,24,1.0,11.0,65,0.00,,,0.00,Wunderground v.1.15,2013-07-21 13:25:00,
2013-07-21 09:30:00,77.7,65.4,29.92,NNE,18,1.0,11.0,66,0.00,,,0.00,Wunderground v.1.15,2013-07-21 13:30:00,
2013-07-21 09:40:00,78.7,65.9,29.92,NNE,21,1.0,1.0,65,0.00,,,0.00,Wunderground v.1.15,2013-07-21 13:40:00,
2013-07-21 09:45:00,79.6,66.3,29.92,North,9,1.0,11.0,64,0.00,,,0.00,Wunderground v.1.15,2013-07-21 13:45:00,
2013-07-21 09:50:00,79.9,67.1,29.92,North,9,1.0,1.0,65,0.00,,,0.00,Wunderground v.1.15,2013-07-21 13:50:00,
2013-07-21 10:00:00,80.2,66.5,29.92,NE,36,0.0,11.0,63,0.00,,,0.00,Wunderground v.1.15,2013-07-21 14:00:00,
2013-07-21 10:10:00,80.5,66.3,29.92,NNE,28,0.0,11.0,62,0.00,,,0.00,Wunderground v.1.15,2013-07-21 14:10:00,
2013-07-21 10:15:00,80.4,66.2,29.92,North,3,0.0,11.0,62,0.00,,,0.00,Wunderground v.1.15,2013-07-21 14:15:00,
2013-07-21 10:25:00,80.1,66.4,29.92,NE,40,1.0,11.0,63,0.00,,,0.00,Wunderground v.1.15,2013-07-21 14:25:00,
2013-07-21 10:30:00,79.4,66.2,29.92,NE,35,0.0,11.0,64,0.00,,,0.00,Wunderground v.1.15,2013-07-21 14:30:00,
2013-07-21 10:35:00,79.1,65.9,29.92,NE,35,0.0,11.0,64,0.00,,,0.00,Wunderground v.1.15,2013-07-21 14:35:00,
2013-07-21 10:40:00,79.1,66.3,29.92,NE,34,0.0,11.0,65,0.00,,,0.00,Wunderground v.1.15,2013-07-21 14:40:00,
2013-07-21 10:50:00,79.9,66.2,29.92,NE,56,0.0,11.0,63,0.00,,,0.00,Wunderground v.1.15,2013-07-21 14:50:00,
2013-07-21 10:55:00,80.2,66.9,29.92,NE,55,0.0,11.0,64,0.00,,,0.00,Wunderground v.1.15,2013-07-21 14:55:00,
2013-07-21 11:00:00,80.6,66.4,29.92,ENE,62,0.0,11.0,62,0.00,,,0.00,Wunderground v.1.15,2013-07-21 15:00:00,
2013-07-21 11:05:00,80.7,66.9,29.92,East,86,1.0,11.0,63,0.00,,,0.00,Wunderground v.1.15,2013-07-21 15:05:00,
2013-07-21 11:10:00,80.9,65.2,29.92,NE,48,1.0,1.0,59,0.00,,,0.00,Wunderground v.1.15,2013-07-21 15:10:00,
2013-07-21 11:20:00,81.6,66.4,29.92,NE,46,0.0,11.0,60,0.00,,,0.00,Wunderground v.1.15,2013-07-21 15:20:00,
2013-07-21 11:25:00,82.1,66.8,29.92,NE,40,1.0,11.0,60,0.00,,,0.00,Wunderground v.1.15,2013-07-21 15:25:00,
2013-07-21 11:30:00,82.1,66.8,29.93,NE,38,0.0,11.0,60,0.00,,,0.00,Wunderground v.1.15,2013-07-21 15:30:00,
2013-07-21 11:40:00,83.0,66.7,29.92,NNE,18,0.0,11.0,58,0.00,,,0.00,Wunderground v.1.15,2013-07-21 15:40:00,
2013-07-21 11:45:00,83.1,65.8,29.93,NNE,31,0.0,11.0,56,0.00,,,0.00,Wunderground v.1.15,2013-07-21 15:45:00,
2013-07-21 11:50:00,83.1,66.8,29.93,ENE,62,0.0,11.0,58,0.00,,,0.00,Wunderground v.1.15,2013-07-21 15:50:00,
2013-07-21 11:55:00,83.4,66.6,29.92,ENE,59,0.0,11.0,57,0.00,,,0.00,Wunderground v.1.15,2013-07-21 15:55:00,
2013-07-21 12:00:00,83.5,66.7,29.92,NE,42,0.0,11.0,57,0.00,,,0.00,Wunderground v.1.15,2013-07-21 16:00:00,
2013-07-21 12:10:00,83.3,67.0,29.92,ENE,72,0.0,11.0,58,0.00,,,0.00,Wunderground v.1.15,2013-07-21 16:10:00,
2013-07-21 12:15:00,83.0,65.7,29.92,ENE,57,0.0,11.0,56,0.00,,,0.00,Wunderground v.1.15,2013-07-21 16:15:00,
2013-07-21 12:20:00,82.5,65.7,29.93,NE,45,0.0,11.0,57,0.00,,,0.00,Wunderground v.1.15,2013-07-21 16:20:00,
2013-07-21 12:25:00,81.8,65.6,29.93,NE,41,0.0,11.0,58,0.00,,,0.00,Wunderground v.1.15,2013-07-21 16:25:00,
2013-07-21 12:30:00,81.9,66.2,29.93,NE,41,0.0,11.0,59,0.00,,,0.00,Wunderground v.1.15,2013-07-21 16:30:00,
2013-07-21 12:40:00,82.9,66.1,29.92,NNE,28,0.0,11.0,57,0.00,,,0.00,Wunderground v.1.15,2013-07-21 16:40:00,
2013-07-21 12:45:00,83.4,66.1,29.92,NNE,28,0.0,11.0,56,0.00,,,0.00,Wunderground v.1.15,2013-07-21 16:45:00,
2013-07-21 12:50:00,83.9,66.0,29.92,NNE,30,0.0,11.0,55,0.00,,,0.00,Wunderground v.1.15,2013-07-21 16:50:00,
2013-07-21 13:00:00,84.4,65.9,29.92,NNE,32,0.0,11.0,54,0.00,,,0.00,Wunderground v.1.15,2013-07-21 17:00:00,
2013-07-21 13:05:00,84.9,65.3,29.92,ENE,68,0.0,11.0,52,0.00,,,0.00,Wunderground v.1.15,2013-07-21 17:05:00,
2013-07-21 13:10:00,84.9,65.9,29.92,ENE,66,0.0,11.0,53,0.00,,,0.00,Wunderground v.1.15,2013-07-21 17:10:00,
2013-07-21 13:15:00,84.8,66.3,29.92,ENE,65,0.0,11.0,54,0.00,,,0.00,Wunderground v.1.15,2013-07-21 17:15:00,
2013-07-21 13:25:00,84.5,65.5,29.92,ENE,65,0.0,11.0,53,0.00,,,0.00,Wunderground v.1.15,2013-07-21 17:25:00,
2013-07-21 13:30:00,84.7,66.2,29.92,ENE,72,0.0,11.0,54,0.00,,,0.00,Wunderground v.1.15,2013-07-21 17:30:00,
2013-07-21 13:35:00,84.3,64.8,29.92,ENE,72,0.0,11.0,52,0.00,,,0.00,Wunderground v.1.15,2013-07-21 17:35:00,
2013-07-21 13:40:00,82.4,65.1,29.92,ENE,72,0.0,11.0,56,0.00,,,0.00,Wunderground v.1.15,2013-07-21 17:40:00,
2013-07-21 13:50:00,83.3,67.0,29.92,NW,318,1.0,1.0,58,0.00,,,0.00,Wunderground v.1.15,2013-07-21 17:50:00,
2013-07-21 13:55:00,82.3,65.5,29.92,SSW,195,2.0,2.0,57,0.00,,,0.00,Wunderground v.1.15,2013-07-21 17:55:00,
2013-07-21 14:00:00,80.7,65.5,29.92,SSW,195,1.0,1.0,60,0.00,,,0.00,Wunderground v.1.15,2013-07-21 18:00:00,
2013-07-21 14:05:00,80.5,67.2,29.92,SSW,194,0.0,11.0,64,0.00,,,0.00,Wunderground v.1.15,2013-07-21 18:05:00,
2013-07-21 14:10:00,80.8,66.1,29.92,SSW,195,0.0,11.0,61,0.00,,,0.00,Wunderground v.1.15,2013-07-21 18:10:00,
2013-07-21 14:15:00,81.3,66.6,29.92,SSW,194,0.0,11.0,61,0.00,,,0.00,Wunderground v.1.15,2013-07-21 18:15:00,
2013-07-21 14:25:00,82.2,67.9,29.92,SSW,194,0.0,11.0,62,0.00,,,0.00,Wunderground v.1.15,2013-07-21 18:25:00,
2013-07-21 14:30:00,82.6,67.8,29.91,SSW,195,0.0,11.0,61,0.00,,,0.00,Wunderground v.1.15,2013-07-21 18:30:00,
2013-07-21 14:35:00,82.0,68.2,29.91,SSW,195,1.0,11.0,63,0.00,,,0.00,Wunderground v.1.15,2013-07-21 18:35:00,
2013-07-21 14:45:00,82.0,66.3,29.91,SSW,207,1.0,11.0,59,0.00,,,0.00,Wunderground v.1.15,2013-07-21 18:45:00,
2013-07-21 14:50:00,82.4,66.6,29.91,SSW,207,0.0,11.0,59,0.00,,,0.00,Wunderground v.1.15,2013-07-21 18:50:00,
2013-07-21 14:55:00,83.0,68.2,29.91,SSW,207,0.0,11.0,61,0.00,,,0.00,Wunderground v.1.15,2013-07-21 18:55:00,
2013-07-21 15:05:00,83.2,66.9,29.91,ENE,61,0.0,11.0,58,0.00,,,0.00,Wunderground v.1.15,2013-07-21 19:05:00,
2013-07-21 15:10:00,83.2,66.4,29.91,ENE,61,0.0,11.0,57,0.00,,,0.00,Wunderground v.1.15,2013-07-21 19:10:00,
2013-07-21 15:15:00,83.4,67.1,29.91,ENE,61,0.0,11.0,58,0.00,,,0.00,Wunderground v.1.15,2013-07-21 19:15:00,
2013-07-21 15:20:00,83.4,67.1,29.91,ENE,59,0.0,11.0,58,0.00,,,0.00,Wunderground v.1.15,2013-07-21 19:20:00,
2013-07-21 15:25:00,83.3,67.0,29.91,ENE,59,0.0,11.0,58,0.00,,,0.00,Wunderground v.1.15,2013-07-21 19:25:00,
2013-07-21 15:30:00,83.4,66.6,29.91,ENE,59,0.0,11.0,57,0.00,,,0.00,Wunderground v.1.15,2013-07-21 19:30:00,
2013-07-21 15:40:00,83.2,66.9,29.91,ENE,60,0.0,11.0,58,0.00,,,0.00,Wunderground v.1.15,2013-07-21 19:40:00,
2013-07-21 15:45:00,82.4,67.6,29.91,ESE,109,0.0,11.0,61,0.00,,,0.00,Wunderground v.1.15,2013-07-21 19:45:00,
2013-07-21 15:50:00,81.6,67.8,29.91,ESE,107,0.0,11.0,63,0.00,,,0.00,Wunderground v.1.15,2013-07-21 19:50:00,
2013-07-21 15:55:00,81.2,67.9,29.91,ENE,78,0.0,11.0,64,0.00,,,0.00,Wunderground v.1.15,2013-07-21 19:55:00,
2013-07-21 16:00:00,81.2,67.9,29.91,East,79,0.0,11.0,64,0.00,,,0.00,Wunderground v.1.15,2013-07-21 20:00:00,
2013-07-21 16:05:00,81.6,68.7,29.91,ENE,78,0.0,11.0,65,0.00,,,0.00,Wunderground v.1.15,2013-07-21 20:05:00,
2013-07-21 16:15:00,84.7,68.8,29.91,East,80,0.0,11.0,59,0.00,,,0.00,Wunderground v.1.15,2013-07-21 20:15:00,
2013-07-21 16:20:00,86.0,69.5,29.91,East,83,0.0,11.0,58,0.00,,,0.00,Wunderground v.1.15,2013-07-21 20:20:00,
2013-07-21 16:30:00,86.4,68.3,29.91,NE,38,0.0,11.0,55,0.00,,,0.00,Wunderground v.1.15,2013-07-21 20:30:00,
2013-07-21 16:35:00,85.6,69.1,29.91,NE,36,0.0,11.0,58,0.00,,,0.00,Wunderground v.1.15,2013-07-21 20:35:00,
2013-07-21 16:40:00,84.4,69.5,29.91,NE,35,0.0,11.0,61,0.00,,,0.00,Wunderground v.1.15,2013-07-21 20:40:00,
2013-07-21 16:45:00,83.7,68.3,29.91,NE,35,0.0,11.0,60,0.00,,,0.00,Wunderground v.1.15,2013-07-21 20:45:00,
2013-07-21 16:50:00,83.3,68.4,29.91,NE,35,0.0,11.0,61,0.00,,,0.00,Wunderground v.1.15,2013-07-21 20:50:00,
2013-07-21 17:00:00,82.8,68.9,29.91,NE,35,0.0,11.0,63,0.00,,,0.00,Wunderground v.1.15,2013-07-21 21:00:00,
2013-07-21 17:05:00,82.5,68.6,29.91,NE,35,0.0,11.0,63,0.00,,,0.00,Wunderground v.1.15,2013-07-21 21:05:00,
2013-07-21 17:10:00,82.1,68.3,29.91,NE,54,0.0,11.0,63,0.00,,,0.00,Wunderground v.1.15,2013-07-21 21:10:00,
2013-07-21 17:15:00,82.0,68.6,29.91,NE,53,0.0,11.0,64,0.00,,,0.00,Wunderground v.1.15,2013-07-21 21:15:00,
2013-07-21 17:20:00,82.4,69.0,29.91,NE,53,0.0,11.0,64,0.00,,,0.00,Wunderground v.1.15,2013-07-21 21:20:00,
2013-07-21 17:30:00,84.1,69.7,29.90,NE,52,0.0,11.0,62,0.00,,,0.00,Wunderground v.1.15,2013-07-21 21:30:00,
2013-07-21 17:35:00,84.6,70.1,29.90,NE,51,0.0,11.0,62,0.00,,,0.00,Wunderground v.1.15,2013-07-21 21:35:00,
2013-07-21 17:40:00,85.0,70.0,29.91,NE,52,0.0,11.0,61,0.00,,,0.00,Wunderground v.1.15,2013-07-21 21:40:00,
2013-07-21 17:45:00,85.5,69.5,29.90,NE,53,0.0,11.0,59,0.00,,,0.00,Wunderground v.1.15,2013-07-21 21:45:00,
2013-07-21 17:55:00,86.9,69.8,29.90,NE,52,0.0,11.0,57,0.00,,,0.00,Wunderground v.1.15,2013-07-21 21:55:00,
2013-07-21 18:00:00,87.1,70.5,29.90,NE,44,0.0,11.0,58,0.00,,,0.00,Wunderground v.1.15,2013-07-21 22:00:00,
2013-07-21 18:05:00,86.4,69.9,29.90,NNE,22,0.0,11.0,58,0.00,,,0.00,Wunderground v.1.15,2013-07-21 22:05:00,
2013-07-21 18:15:00,84.0,69.1,29.90,NNE,24,0.0,11.0,61,0.00,,,0.00,Wunderground v.1.15,2013-07-21 22:15:00,
2013-07-21 18:20:00,83.5,69.1,29.90,NE,35,0.0,11.0,62,0.00,,,0.00,Wunderground v.1.15,2013-07-21 22:20:00,
2013-07-21 18:25:00,83.0,69.1,29.90,NE,47,0.0,11.0,63,0.00,,,0.00,Wunderground v.1.15,2013-07-21 22:25:00,
2013-07-21 18:30:00,82.4,68.1,29.90,NNE,19,0.0,11.0,62,0.00,,,0.00,Wunderground v.1.15,2013-07-21 22:30:00,
2013-07-21 18:35:00,81.8,68.0,29.90,NNE,28,0.0,11.0,63,0.00,,,0.00,Wunderground v.1.15,2013-07-21 22:35:00,
2013-07-21 18:45:00,81.0,68.1,29.91,NNE,28,0.0,11.0,65,0.00,,,0.00,Wunderground v.1.15,2013-07-21 22:45:00,
2013-07-21 18:50:00,80.6,67.7,29.91,NNE,27,0.0,11.0,65,0.00,,,0.00,Wunderground v.1.15,2013-07-21 22:50:00,
2013-07-21 18:55:00,80.5,68.1,29.91,NNE,28,0.0,11.0,66,0.00,,,0.00,Wunderground v.1.15,2013-07-21 22:55:00,
2013-07-21 19:00:00,80.4,68.0,29.91,NNE,27,0.0,11.0,66,0.00,,,0.00,Wunderground v.1.15,2013-07-21 23:00:00,
2013-07-21 19:05:00,80.3,67.9,29.91,NNE,28,0.0,11.0,66,0.00,,,0.00,Wunderground v.1.15,2013-07-21 23:05:00,
2013-07-21 19:15:00,79.4,67.5,29.91,NNE,28,0.0,11.0,67,0.00,,,0.00,Wunderground v.1.15,2013-07-21 23:15:00,
2013-07-21 19:20:00,78.8,67.8,29.92,NNE,30,0.0,11.0,69,0.00,,,0.00,Wunderground v.1.15,2013-07-21 23:20:00,
2013-07-21 19:25:00,78.5,67.9,29.91,NNE,32,0.0,11.0,70,0.00,,,0.00,Wunderground v.1.15,2013-07-21 23:25:00,
2013-07-21 19:35:00,78.5,67.9,29.92,NNE,32,0.0,11.0,70,0.00,,,0.00,Wunderground v.1.15,2013-07-21 23:35:00,
2013-07-21 19:45:00,77.9,67.3,29.92,NNE,31,0.0,11.0,70,0.00,,,0.00,Wunderground v.1.15,2013-07-21 23:45:00,
2013-07-21 19:50:00,77.1,67.0,29.92,NNE,32,0.0,11.0,71,0.00,,,0.00,Wunderground v.1.15,2013-07-21 23:50:00,
2013-07-21 19:55:00,76.3,67.0,29.92,NNE,32,0.0,11.0,73,0.00,,,0.00,Wunderground v.1.15,2013-07-21 23:55:00,
2013-07-21 20:05:00,75.1,66.6,29.92,NNE,30,0.0,11.0,75,0.00,,,0.00,Wunderground v.1.15,2013-07-22 00:05:00,
2013-07-21 20:10:00,74.7,66.6,29.92,NNE,30,0.0,11.0,76,0.00,,,0.00,Wunderground v.1.15,2013-07-22 00:10:00,
2013-07-21 20:15:00,74.4,66.3,29.92,NNE,30,0.0,11.0,76,0.00,,,0.00,Wunderground v.1.15,2013-07-22 00:15:00,
2013-07-21 20:20:00,74.0,66.3,29.93,NNE,30,0.0,11.0,77,0.00,,,0.00,Wunderground v.1.15,2013-07-22 00:20:00,
2013-07-21 20:30:00,73.5,66.2,29.93,NNE,30,0.0,11.0,78,0.00,,,0.00,Wunderground v.1.15,2013-07-22 00:30:00,
2013-07-21 20:35:00,73.4,66.5,29.93,NNE,30,0.0,11.0,79,0.00,,,0.00,Wunderground v.1.15,2013-07-22 00:35:00,
2013-07-21 20:40:00,73.1,66.6,29.93,NNE,30,0.0,11.0,80,0.00,,,0.00,Wunderground v.1.15,2013-07-22 00:40:00,
2013-07-21 20:45:00,72.8,66.3,29.93,NNE,30,0.0,11.0,80,0.00,,,0.00,Wunderground v.1.15,2013-07-22 00:45:00,
2013-07-21 20:50:00,72.5,66.0,29.93,NNE,30,0.0,11.0,80,0.00,,,0.00,Wunderground v.1.15,2013-07-22 00:50:00,
2013-07-21 21:00:00,72.1,65.9,29.93,NNE,30,0.0,11.0,81,0.00,,,0.00,Wunderground v.1.15,2013-07-22 01:00:00,
2013-07-21 21:05:00,71.9,66.1,29.93,NNE,30,0.0,11.0,82,0.00,,,0.00,Wunderground v.1.15,2013-07-22 01:05:00,
2013-07-21 21:10:00,71.5,66.1,29.94,NNE,30,0.0,11.0,83,0.00,,,0.00,Wunderground v.1.15,2013-07-22 01:10:00,
2013-07-21 21:15:00,70.9,66.2,29.94,NNE,30,0.0,11.0,85,0.00,,,0.00,Wunderground v.1.15,2013-07-22 01:15:00,
2013-07-21 21:25:00,70.2,66.1,29.95,NNE,30,0.0,11.0,87,0.00,,,0.00,Wunderground v.1.15,2013-07-22 01:25:00,
2013-07-21 21:30:00,70.1,66.4,29.95,NNE,30,0.0,11.0,88,0.00,,,0.00,Wunderground v.1.15,2013-07-22 01:30:00,
2013-07-21 21:35:00,70.0,66.0,29.96,NNE,30,0.0,11.0,87,0.00,,,0.00,Wunderground v.1.15,2013-07-22 01:35:00,
2013-07-21 21:40:00,70.0,66.0,29.96,NNE,30,0.0,11.0,87,0.00,,,0.00,Wunderground v.1.15,2013-07-22 01:40:00,
2013-07-21 21:50:00,70.1,66.7,29.96,NNE,30,0.0,11.0,89,0.00,,,0.00,Wunderground v.1.15,2013-07-22 01:50:00,
2013-07-21 21:55:00,70.0,66.9,29.96,NNE,30,0.0,11.0,90,0.00,,,0.00,Wunderground v.1.15,2013-07-22 01:55:00,
2013-07-21 22:00:00,69.5,66.4,29.96,NNE,30,0.0,11.0,90,0.00,,,0.00,Wunderground v.1.15,2013-07-22 02:00:00,
2013-07-21 22:05:00,69.2,66.5,29.96,NNE,30,0.0,11.0,91,0.00,,,0.00,Wunderground v.1.15,2013-07-22 02:05:00,
2013-07-21 22:10:00,69.1,66.7,29.96,NNE,30,0.0,11.0,92,0.00,,,0.00,Wunderground v.1.15,2013-07-22 02:10:00,
2013-07-21 22:20:00,69.0,66.3,29.97,NNE,30,0.0,11.0,91,0.00,,,0.00,Wunderground v.1.15,2013-07-22 02:20:00,
2013-07-21 22:25:00,69.0,66.3,29.96,NNE,30,0.0,11.0,91,0.00,,,0.00,Wunderground v.1.15,2013-07-22 02:25:00,
2013-07-21 22:30:00,69.0,66.3,29.96,NNE,30,0.0,11.0,91,0.00,,,0.00,Wunderground v.1.15,2013-07-22 02:30:00,
2013-07-21 22:35:00,69.0,65.9,29.96,NNE,30,0.0,11.0,90,0.00,,,0.00,Wunderground v.1.15,2013-07-22 02:35:00,
2013-07-21 22:40:00,68.8,65.7,29.96,NNE,30,0.0,11.0,90,0.00,,,0.00,Wunderground v.1.15,2013-07-22 02:40:00,
2013-07-21 22:50:00,68.7,65.6,29.97,NNE,30,0.0,11.0,90,0.00,,,0.00,Wunderground v.1.15,2013-07-22 02:50:00,
2013-07-21 22:55:00,68.6,65.5,29.97,NNE,30,0.0,11.0,90,0.00,,,0.00,Wunderground v.1.15,2013-07-22 02:55:00,
2013-07-21 23:00:00,68.5,65.8,29.96,NNE,30,0.0,11.0,91,0.00,,,0.00,Wunderground v.1.15,2013-07-22 03:00:00,
2013-07-21 23:10:00,68.2,65.5,29.96,NNE,30,0.0,11.0,91,0.00,,,0.00,Wunderground v.1.15,2013-07-22 03:10:00,
2013-07-21 23:15:00,68.0,65.3,29.96,NNE,30,0.0,11.0,91,0.00,,,0.00,Wunderground v.1.15,2013-07-22 03:15:00,
2013-07-21 23:20:00,67.9,65.2,29.96,NNE,30,0.0,11.0,91,0.00,,,0.00,Wunderground v.1.15,2013-07-22 03:20:00,
2013-07-21 23:25:00,67.8,65.1,29.96,NNE,30,0.0,11.0,91,0.00,,,0.00,Wunderground v.1.15,2013-07-22 03:25:00,
2013-07-21 23:35:00,67.6,64.9,29.96,NNE,30,0.0,11.0,91,0.00,,,0.00,Wunderground v.1.15,2013-07-22 03:35:00,
2013-07-21 23:40:00,67.6,64.9,29.96,NNE,30,0.0,11.0,91,0.00,,,0.00,Wunderground v.1.15,2013-07-22 03:40:00,
2013-07-21 23:45:00,67.5,65.1,29.96,NNE,30,0.0,11.0,92,0.00,,,0.00,Wunderground v.1.15,2013-07-22 03:45:00,
2013-07-21 23:50:00,67.4,65.0,29.97,NNE,30,0.0,11.0,92,0.00,,,0.00,Wunderground v.1.15,2013-07-22 03:50:00,